Regional Weather Roundup
Issued by NWS

Home | Current Version | Previous Version | Text Only | Print | Product List | Glossary On
Versions: 1 2 3 4 5 6 7 8 9 10 11 12 13 14 15 16 17 18 19 20 21 22 23 24 25 26 27 28 29 30 31 32 33 34 35 36 37 38 39 40 41 42 43 44 45 46 47 48 49 50
000
ASUS43 KTOP 271408
RWRKS

WEATHER ROUNDUP FOR KANSAS
NATIONAL WEATHER SERVICE GOODLAND KS
900 AM CDT WED AUG 27 2014

NOTE:  "FAIR" INDICATES FEW OR NO CLOUDS BELOW 12,000 FEET WITH NO
SIGNIFICANT WEATHER AND/OR OBSTRUCTIONS TO VISIBILITY.

KSZ001>006-013>018-027>032-041>047-271500-
NORTHWEST KANSAS

CITY           SKY/WX    TMP DP  RH WIND       PRES   REMARKS
GOODLAND       CLOUDY    65  64  97 S13       30.15S
HAYS           CLOUDY    72  64  78 S8        30.13S
HILL CITY      CLOUDY    71  67  87 CALM      30.13R
RUSSELL        CLOUDY    74  66  76 SW6       30.11S
$$

KSZ061>065-074>080-084>089-271500-
SOUTHWEST KANSAS

CITY           SKY/WX    TMP DP  RH WIND       PRES   REMARKS
DODGE CITY     CLOUDY    67  64  90 SE13      30.14F
ELKHART          N/A     65  61  87 SE13        N/A
GARDEN CITY    CLOUDY    68  65  90 SE17      30.13F
GREAT BEND     CLOUDY    70  63  78 SW8       30.13S
LIBERAL        CLOUDY    70  64  83 SE12      30.15S
PRATT          LGT RAIN  68  63  83 SW5       30.13F
$$

KSZ066>073-081>083-090>101-271500-
SOUTHEAST KANSAS

CITY           SKY/WX    TMP DP  RH WIND       PRES   REMARKS
CHANUTE        SUNNY     81  68  64 SW8       30.12R
COFFEYVILLE    SUNNY     80  70  71 SW5       30.12R
HUTCHINSON     CLOUDY    77  65  66 W7        30.13S
MEDICINE LODGE   N/A     72  67  84 CALM      30.11F
NEWTON         PTSUNNY   79  63  57 NW10      30.17S
PARSONS        SUNNY     81  70  69 SW7       30.13R
WICHITA INTL   PTSUNNY   80  65  59 NW9       30.12S
WICHITA JABRA  PTSUNNY   80  65  59 W10       30.13R
WICHITA MCCONL PTSUNNY   80  66  61 W9        30.13S
WINFIELD       SUNNY     79  68  69 S6        30.13S
$$

KSZ007>012-019>026-033>040-048>060-102>105-271500-
NORTHEAST KANSAS

CITY           SKY/WX    TMP DP  RH WIND       PRES   REMARKS
CONCORDIA      CLOUDY    72  70  93 NE3       30.10R
EMPORIA        MOSUNNY   80  69  69 SW6       30.11R
LAWRENCE       PTSUNNY   81  72  74 E10       30.12R
MANHATTAN      MOSUNNY   78  71  79 CALM      30.09R
MARYSVILLE     PTSUNNY   73  72  94 E6        30.09R
OLATHE IND     PTSUNNY   78  68  71 N9        30.13R
OLATHE EXE     PTSUNNY   78  70  76 NE8       30.11R
SALINA         MOSUNNY   79  66  64 W13       30.11R
TOPEKA BILLARD CLOUDY    77  72  84 NE6       30.12R
TOPEKA FORBES  PTSUNNY   75  69  81 NE7       30.12R
$$



USA.gov is the U.S. government's official web portal to all federal, state and local government web resources and services.